Year,Month,Day,Hour,Minute,Value (Times are PST for windspeed in km/hr)
2010,05,04,00,00,0.30
2010,05,04,00,01,0.80
2010,05,04,00,02,1.90
2010,05,04,00,03,3.70
2010,05,04,00,04,2.40
2010,05,04,00,05,0.40
2010,05,04,00,06,0.10
2010,05,04,00,07,1.60
2010,05,04,00,08,3.30
2010,05,04,00,09,1.50
2010,05,04,00,10,2.20
2010,05,04,00,11,0.50
2010,05,04,00,12,2.00
2010,05,04,00,16,6.20
2010,05,04,00,17,3.00
2010,05,04,00,18,1.80
2010,05,04,00,19,0.20
2010,05,04,00,20,1.20
2010,05,04,00,21,1.30
2010,05,04,00,22,3.60
2010,05,04,00,23,10.00
2010,05,04,00,24,8.50
2010,05,04,00,25,4.90
2010,05,04,00,26,3.60
2010,05,04,00,27,7.50
2010,05,04,00,28,5.40
2010,05,04,00,29,1.50
2010,05,04,00,30,4.20
2010,05,04,00,31,4.70
2010,05,04,00,32,7.20
2010,05,04,00,33,4.70
2010,05,04,00,34,8.80
2010,05,04,00,35,5.80
2010,05,04,00,36,2.70
2010,05,04,00,37,0.60
2010,05,04,00,38,2.00
2010,05,04,00,39,4.10
2010,05,04,00,40,2.60
2010,05,04,00,41,1.00
2010,05,04,00,42,0.20
2010,05,04,00,43,2.90
2010,05,04,00,44,4.40
2010,05,04,00,45,5.30
2010,05,04,00,46,5.10
2010,05,04,00,47,0.60
2010,05,04,00,48,0.90
2010,05,04,00,49,3.50
2010,05,04,00,50,0.40
2010,05,04,00,51,0.10
2010,05,04,00,52,1.70
2010,05,04,00,53,5.20
2010,05,04,00,54,2.60
2010,05,04,00,55,1.90
2010,05,04,00,56,1.20
2010,05,04,00,57,4.90
2010,05,04,00,58,2.30
2010,05,04,00,59,6.90
2010,05,04,01,00,1.10
2010,05,04,01,01,2.20
2010,05,04,01,02,3.00
2010,05,04,01,03,2.60
2010,05,04,01,04,1.30
2010,05,04,01,05,1.60
2010,05,04,01,06,1.10
2010,05,04,01,07,0.10
2010,05,04,01,08,0.80
2010,05,04,01,09,5.30
2010,05,04,01,10,3.00
2010,05,04,01,11,0.70
2010,05,04,01,12,0.20
2010,05,04,01,13,2.60
2010,05,04,01,14,2.50
2010,05,04,01,15,0.40
2010,05,04,01,16,1.20
2010,05,04,01,17,0.10
2010,05,04,01,18,0.40
2010,05,04,01,19,2.10
2010,05,04,01,20,2.10
2010,05,04,01,21,0.20
2010,05,04,01,22,0.50
2010,05,04,01,23,0.00
2010,05,04,01,24,0.70
2010,05,04,01,25,1.90
2010,05,04,01,26,1.40
2010,05,04,01,27,1.00
2010,05,04,01,28,0.40
2010,05,04,01,29,0.60
2010,05,04,01,30,1.50
2010,05,04,01,31,0.50
2010,05,04,01,32,0.20
2010,05,04,01,33,0.20
2010,05,04,01,34,1.90
2010,05,04,01,35,2.00
2010,05,04,01,36,1.20
2010,05,04,01,37,0.60
2010,05,04,01,38,0.70
2010,05,04,01,39,0.70
2010,05,04,01,40,0.90
2010,05,04,01,41,2.60
2010,05,04,01,42,4.00
2010,05,04,01,43,2.30
2010,05,04,01,44,1.90
2010,05,04,01,45,3.60
2010,05,04,01,46,2.20
2010,05,04,01,47,0.70
2010,05,04,01,48,0.40
2010,05,04,01,49,3.80
2010,05,04,01,50,3.20
2010,05,04,01,51,2.10
2010,05,04,01,52,3.50
2010,05,04,01,53,5.30
2010,05,04,01,54,1.90
2010,05,04,01,55,1.20
2010,05,04,01,56,6.50
2010,05,04,01,57,3.30
2010,05,04,01,58,3.70
2010,05,04,01,59,1.70
2010,05,04,02,00,2.00
2010,05,04,02,01,2.50
2010,05,04,02,02,0.30
2010,05,04,02,03,2.00
2010,05,04,02,04,0.50
2010,05,04,02,05,1.80
2010,05,04,02,06,1.40
2010,05,04,02,07,0.90
2010,05,04,02,08,1.40
2010,05,04,02,09,0.20
2010,05,04,02,10,0.00
2010,05,04,02,11,1.30
2010,05,04,02,12,0.10
2010,05,04,02,13,1.20
2010,05,04,02,14,0.90
2010,05,04,02,15,0.00
2010,05,04,02,16,0.70
2010,05,04,02,17,1.80
2010,05,04,02,18,0.70
2010,05,04,02,19,0.20
2010,05,04,02,20,0.20
2010,05,04,02,21,0.00
2010,05,04,02,22,2.30
2010,05,04,02,23,4.10
2010,05,04,02,24,1.60
2010,05,04,02,25,4.30
2010,05,04,02,26,1.10
2010,05,04,02,27,2.10
2010,05,04,02,28,0.20
2010,05,04,02,29,0.30
2010,05,04,02,30,1.10
2010,05,04,02,31,0.80
2010,05,04,02,32,2.30
2010,05,04,02,33,1.30
2010,05,04,02,34,3.10
2010,05,04,02,35,1.10
2010,05,04,02,36,2.00
2010,05,04,02,37,1.80
2010,05,04,02,38,1.10
2010,05,04,02,39,2.30
2010,05,04,02,40,1.90
2010,05,04,02,41,2.10
2010,05,04,02,42,0.50
2010,05,04,02,43,1.60
2010,05,04,02,44,0.40
2010,05,04,02,45,0.30
2010,05,04,02,46,1.90
2010,05,04,02,47,1.50
2010,05,04,02,48,1.90
2010,05,04,02,49,1.00
2010,05,04,02,50,0.90
2010,05,04,02,51,0.80
2010,05,04,02,52,2.40
2010,05,04,02,53,0.50
2010,05,04,02,54,2.50
2010,05,04,02,55,3.30
2010,05,04,02,56,4.30
2010,05,04,02,57,2.00
2010,05,04,02,58,0.60
2010,05,04,02,59,0.00
2010,05,04,03,00,0.60
2010,05,04,03,01,0.00
2010,05,04,03,02,0.10
2010,05,04,03,03,1.70
2010,05,04,03,04,1.90
2010,05,04,03,05,0.40
2010,05,04,03,06,0.00
2010,05,04,03,07,0.90
2010,05,04,03,08,0.20
2010,05,04,03,09,1.30
2010,05,04,03,10,0.10
2010,05,04,03,11,0.40
2010,05,04,03,12,0.50
2010,05,04,03,13,0.20
2010,05,04,03,14,0.50
2010,05,04,03,15,0.30
2010,05,04,03,16,0.20
2010,05,04,03,17,1.00
2010,05,04,03,18,0.20
2010,05,04,03,19,0.00
2010,05,04,03,20,0.70
2010,05,04,03,21,0.60
2010,05,04,03,22,0.50
2010,05,04,03,23,0.90
2010,05,04,03,24,0.70
2010,05,04,03,25,0.30
2010,05,04,03,26,0.20
2010,05,04,03,27,0.10
2010,05,04,03,28,0.30
2010,05,04,03,29,0.30
2010,05,04,03,30,0.10
2010,05,04,03,31,0.00
2010,05,04,03,32,1.10
2010,05,04,03,33,1.20
2010,05,04,03,34,0.00
2010,05,04,03,35,0.10
2010,05,04,03,36,0.50
2010,05,04,03,37,0.00
2010,05,04,03,38,0.00
2010,05,04,03,39,1.30
2010,05,04,03,40,0.10
2010,05,04,03,41,0.00
2010,05,04,03,42,0.10
2010,05,04,03,43,0.30
2010,05,04,03,44,0.20
2010,05,04,03,45,0.90
2010,05,04,03,46,0.10
2010,05,04,03,47,0.30
2010,05,04,03,48,0.50
2010,05,04,03,49,0.30
2010,05,04,03,50,0.10
2010,05,04,03,51,0.50
2010,05,04,03,52,0.00
2010,05,04,03,53,0.30
2010,05,04,03,54,0.00
2010,05,04,03,55,0.30
2010,05,04,03,56,0.10
2010,05,04,03,57,0.00
2010,05,04,03,58,0.20
2010,05,04,03,59,0.20
2010,05,04,04,00,0.10
2010,05,04,04,01,0.00
2010,05,04,04,02,0.60
2010,05,04,04,03,0.50
2010,05,04,04,04,0.20
2010,05,04,04,05,0.30
2010,05,04,04,06,0.90
2010,05,04,04,07,0.30
2010,05,04,04,08,0.10
2010,05,04,04,09,0.10
2010,05,04,04,10,0.00
2010,05,04,04,11,0.00
2010,05,04,04,12,0.20
2010,05,04,04,13,0.10
2010,05,04,04,14,0.10
2010,05,04,04,15,0.60
2010,05,04,04,16,0.00
2010,05,04,04,17,0.00
2010,05,04,04,18,0.00
2010,05,04,04,19,0.10
2010,05,04,04,20,0.00
2010,05,04,04,21,0.00
2010,05,04,04,22,0.00
2010,05,04,04,23,0.00
2010,05,04,04,24,0.00
2010,05,04,04,25,0.00
2010,05,04,04,26,0.00
2010,05,04,04,27,0.00
2010,05,04,04,28,0.00
2010,05,04,04,29,0.00
2010,05,04,04,30,0.00
2010,05,04,04,31,0.00
2010,05,04,04,32,0.00
2010,05,04,04,33,0.00
2010,05,04,04,34,0.00
2010,05,04,04,35,0.10
2010,05,04,04,36,0.00
2010,05,04,04,37,0.10
2010,05,04,04,38,0.10
2010,05,04,04,39,0.10
2010,05,04,04,40,0.00
2010,05,04,04,41,0.00
2010,05,04,04,42,0.00
2010,05,04,04,43,0.00
2010,05,04,04,44,0.00
2010,05,04,04,45,0.00
2010,05,04,04,46,0.00
2010,05,04,04,47,0.00
2010,05,04,04,48,0.00
2010,05,04,04,49,0.00
2010,05,04,04,50,0.00
2010,05,04,04,51,0.00
2010,05,04,04,52,0.00
2010,05,04,04,53,0.00
2010,05,04,04,54,0.00
2010,05,04,04,55,0.00
2010,05,04,04,56,0.00
2010,05,04,04,57,0.00
2010,05,04,04,58,0.00
2010,05,04,04,59,0.00
2010,05,04,05,00,0.00
2010,05,04,05,01,0.00
2010,05,04,05,02,0.00
2010,05,04,05,03,0.00
2010,05,04,05,04,0.00
2010,05,04,05,05,0.00
2010,05,04,05,06,0.00
2010,05,04,05,07,0.00
2010,05,04,05,08,0.00
2010,05,04,05,09,0.00
2010,05,04,05,10,0.00
2010,05,04,05,11,0.00
2010,05,04,05,12,0.00
2010,05,04,05,13,0.10
2010,05,04,05,14,0.00
2010,05,04,05,15,0.00
2010,05,04,05,16,0.00
2010,05,04,05,17,0.00
2010,05,04,05,18,0.00
2010,05,04,05,19,0.00
2010,05,04,05,20,0.00
2010,05,04,05,21,0.00
2010,05,04,05,22,0.00
2010,05,04,05,23,0.00
2010,05,04,05,24,0.00
2010,05,04,05,25,0.00
2010,05,04,05,26,0.00
2010,05,04,05,27,0.00
2010,05,04,05,28,0.00
2010,05,04,05,29,0.00
2010,05,04,05,30,0.00
2010,05,04,05,31,0.00
2010,05,04,05,32,0.00
2010,05,04,05,33,0.00
2010,05,04,05,34,0.00
2010,05,04,05,35,0.00
2010,05,04,05,36,0.00
2010,05,04,05,37,0.00
2010,05,04,05,38,0.00
2010,05,04,05,39,0.00
2010,05,04,05,40,0.00
2010,05,04,05,41,0.00
2010,05,04,05,42,0.00
2010,05,04,05,43,0.00
2010,05,04,05,44,0.00
2010,05,04,05,45,0.00
2010,05,04,05,46,0.00
2010,05,04,05,47,0.00
2010,05,04,05,48,0.00
2010,05,04,05,49,0.00
2010,05,04,05,50,0.00
2010,05,04,05,51,0.00
2010,05,04,05,52,0.00
2010,05,04,05,53,0.00
2010,05,04,05,54,0.00
2010,05,04,05,55,0.00
2010,05,04,05,56,0.00
2010,05,04,05,57,0.00
2010,05,04,05,58,0.00
2010,05,04,05,59,0.00
2010,05,04,06,00,0.00
2010,05,04,06,01,0.00
2010,05,04,06,02,0.00
2010,05,04,06,03,0.00
2010,05,04,06,04,0.00
2010,05,04,06,05,0.00
2010,05,04,06,06,0.00
2010,05,04,06,07,0.00
2010,05,04,06,08,0.00
2010,05,04,06,09,0.00
2010,05,04,06,10,0.00
2010,05,04,06,11,0.00
2010,05,04,06,12,0.00
2010,05,04,06,13,0.00
2010,05,04,06,14,0.00
2010,05,04,06,15,0.00
2010,05,04,06,16,0.00
2010,05,04,06,17,0.00
2010,05,04,06,18,0.00
2010,05,04,06,19,0.00
2010,05,04,06,20,0.00
2010,05,04,06,21,0.00
2010,05,04,06,22,0.00
2010,05,04,06,23,0.00
2010,05,04,06,24,0.00
2010,05,04,06,25,0.00
2010,05,04,06,26,0.00
2010,05,04,06,27,0.00
2010,05,04,06,28,0.00
2010,05,04,06,29,0.00
2010,05,04,06,30,0.00
2010,05,04,06,31,0.00
2010,05,04,06,32,0.00
2010,05,04,06,33,0.00
2010,05,04,06,34,0.00
2010,05,04,06,35,0.00
2010,05,04,06,36,0.00
2010,05,04,06,37,0.00
2010,05,04,06,38,0.00
2010,05,04,06,39,0.10
2010,05,04,06,40,0.00
2010,05,04,06,41,0.00
2010,05,04,06,42,0.00
2010,05,04,06,43,0.20
2010,05,04,06,44,0.00
2010,05,04,06,45,0.70
2010,05,04,06,46,0.10
2010,05,04,06,47,0.00
2010,05,04,06,48,0.00
2010,05,04,06,49,0.00
2010,05,04,06,50,0.10
2010,05,04,06,51,0.00
2010,05,04,06,52,0.00
2010,05,04,06,53,0.00
2010,05,04,06,54,0.00
2010,05,04,06,55,0.00
2010,05,04,06,56,0.10
2010,05,04,06,57,1.20
2010,05,04,06,58,0.00
2010,05,04,06,59,0.70
2010,05,04,07,00,1.40
2010,05,04,07,01,0.30
2010,05,04,07,02,0.40
2010,05,04,07,03,0.00
2010,05,04,07,04,0.00
2010,05,04,07,05,0.10
2010,05,04,07,06,0.00
2010,05,04,07,07,0.00
2010,05,04,07,08,0.00
2010,05,04,07,09,0.30
2010,05,04,07,10,0.00
2010,05,04,07,11,0.00
2010,05,04,07,12,0.00
2010,05,04,07,13,0.00
2010,05,04,07,14,0.00
2010,05,04,07,15,0.30
2010,05,04,07,16,0.30
2010,05,04,07,17,1.00
2010,05,04,07,18,0.70
2010,05,04,07,19,0.00
2010,05,04,07,20,0.10
2010,05,04,07,21,0.00
2010,05,04,07,22,0.10
2010,05,04,07,23,0.00
2010,05,04,07,24,0.20
2010,05,04,07,25,2.10
2010,05,04,07,26,1.30
2010,05,04,07,27,0.50
2010,05,04,07,28,3.70
2010,05,04,07,29,0.10
2010,05,04,07,30,0.30
2010,05,04,07,31,1.40
2010,05,04,07,32,2.20
2010,05,04,07,33,0.50
2010,05,04,07,34,1.30
2010,05,04,07,35,2.60
2010,05,04,07,36,0.50
2010,05,04,07,37,3.60
2010,05,04,07,38,1.40
2010,05,04,07,39,5.30
2010,05,04,07,40,2.50
2010,05,04,07,41,3.00
2010,05,04,07,42,2.30
2010,05,04,07,43,2.90
2010,05,04,07,44,0.10
2010,05,04,07,45,0.60
2010,05,04,07,46,1.80
2010,05,04,07,47,4.40
2010,05,04,07,48,3.00
2010,05,04,07,49,0.20
2010,05,04,07,50,0.90
2010,05,04,07,51,0.60
2010,05,04,07,52,5.30
2010,05,04,07,53,6.10
2010,05,04,07,54,1.90
2010,05,04,07,55,1.40
2010,05,04,07,56,4.40
2010,05,04,07,57,3.60
2010,05,04,07,58,1.40
2010,05,04,07,59,1.60
2010,05,04,08,00,2.50
2010,05,04,08,01,2.10
2010,05,04,08,02,0.60
2010,05,04,08,03,1.60
2010,05,04,08,04,2.70
2010,05,04,08,05,1.70
2010,05,04,08,06,3.90
2010,05,04,08,07,4.20
2010,05,04,08,08,6.20
2010,05,04,08,09,7.30
2010,05,04,08,10,3.90
2010,05,04,08,11,0.60
2010,05,04,08,12,0.70
2010,05,04,08,13,0.50
2010,05,04,08,14,3.80
2010,05,04,08,15,3.10
2010,05,04,08,16,2.80
2010,05,04,08,17,6.90
2010,05,04,08,18,9.00
2010,05,04,08,19,6.70
2010,05,04,08,20,4.60
2010,05,04,08,21,4.40
2010,05,04,08,22,6.50
2010,05,04,08,23,10.30
2010,05,04,08,24,4.30
2010,05,04,08,25,2.60
2010,05,04,08,26,8.10
2010,05,04,08,27,3.90
2010,05,04,08,28,8.00
2010,05,04,08,29,1.00
2010,05,04,08,30,1.80
2010,05,04,08,31,0.30
2010,05,04,08,32,4.50
2010,05,04,08,33,3.40
2010,05,04,08,34,11.90
2010,05,04,08,35,5.90
2010,05,04,08,36,4.30
2010,05,04,08,37,5.00
2010,05,04,08,38,9.20
2010,05,04,08,39,0.40
2010,05,04,08,40,0.40
2010,05,04,08,41,0.30
2010,05,04,08,42,4.50
2010,05,04,08,43,5.50
2010,05,04,08,44,0.90
2010,05,04,08,45,2.50
2010,05,04,08,46,7.60
2010,05,04,08,47,5.80
2010,05,04,08,48,3.30
2010,05,04,08,49,4.70
2010,05,04,08,50,1.80
2010,05,04,08,51,7.30
2010,05,04,08,52,7.50
2010,05,04,08,53,3.00
2010,05,04,08,54,4.30
2010,05,04,08,55,5.80
2010,05,04,08,56,4.80
2010,05,04,08,57,1.40
2010,05,04,08,58,0.60
2010,05,04,08,59,3.70
2010,05,04,09,00,6.20
2010,05,04,09,01,7.60
2010,05,04,09,02,6.60
2010,05,04,09,03,4.70
2010,05,04,09,04,3.10
2010,05,04,09,05,3.40
2010,05,04,09,06,7.70
2010,05,04,09,07,7.60
2010,05,04,09,08,6.40
2010,05,04,09,09,3.30
2010,05,04,09,10,7.20
2010,05,04,09,11,4.50
2010,05,04,09,12,9.50
2010,05,04,09,13,6.40
2010,05,04,09,14,6.00
2010,05,04,09,15,3.20
2010,05,04,09,16,3.60
2010,05,04,09,17,3.30
2010,05,04,09,18,0.60
2010,05,04,09,19,2.10
2010,05,04,09,20,1.10
2010,05,04,09,21,1.90
2010,05,04,09,22,3.50
2010,05,04,09,23,2.10
2010,05,04,09,24,4.90
2010,05,04,09,25,2.30
2010,05,04,09,26,1.40
2010,05,04,09,27,1.80
2010,05,04,09,28,1.50
2010,05,04,09,29,0.50
2010,05,04,09,30,0.30
2010,05,04,09,31,0.90
2010,05,04,09,32,1.80
2010,05,04,09,33,3.60
2010,05,04,09,34,2.90
2010,05,04,09,35,0.10
2010,05,04,09,36,0.30
2010,05,04,09,37,1.30
2010,05,04,09,38,7.10
2010,05,04,09,39,4.20
2010,05,04,09,40,4.10
2010,05,04,09,41,5.90
2010,05,04,09,42,9.60
2010,05,04,09,43,9.20
2010,05,04,09,44,6.30
2010,05,04,09,45,2.50
2010,05,04,09,46,3.00
2010,05,04,09,47,0.20
2010,05,04,09,48,1.90
2010,05,04,09,49,3.20
2010,05,04,09,50,10.30
2010,05,04,09,51,13.40
2010,05,04,09,52,3.40
2010,05,04,09,53,0.90
2010,05,04,09,54,3.70
2010,05,04,09,55,4.50
2010,05,04,09,56,2.40
2010,05,04,09,57,6.20
2010,05,04,09,58,9.70
2010,05,04,09,59,10.90
2010,05,04,10,00,7.30
2010,05,04,10,01,7.80
2010,05,04,10,02,4.30
2010,05,04,10,03,1.90
2010,05,04,10,04,1.50
2010,05,04,10,05,4.90
2010,05,04,10,06,4.10
2010,05,04,10,07,8.50
2010,05,04,10,08,6.10
2010,05,04,10,09,7.20
2010,05,04,10,10,2.10
2010,05,04,10,11,4.70
2010,05,04,10,12,11.30
2010,05,04,10,13,6.50
2010,05,04,10,14,5.50
2010,05,04,10,15,2.10
2010,05,04,10,16,2.60
2010,05,04,10,17,8.40
2010,05,04,10,18,3.80
2010,05,04,10,19,1.40
2010,05,04,10,20,2.40
2010,05,04,10,21,13.30
2010,05,04,10,22,10.10
2010,05,04,10,23,1.00
2010,05,04,10,24,4.10
2010,05,04,10,25,5.60
2010,05,04,10,26,3.60
2010,05,04,10,27,1.60
2010,05,04,10,28,6.40
2010,05,04,10,29,2.90
2010,05,04,10,30,4.90
2010,05,04,10,31,6.60
2010,05,04,10,32,3.20
2010,05,04,10,33,6.00
2010,05,04,10,34,4.40
2010,05,04,10,35,4.30
2010,05,04,10,36,9.70
2010,05,04,10,37,11.00
2010,05,04,10,38,6.30
2010,05,04,10,39,3.20
2010,05,04,10,40,7.00
2010,05,04,10,41,7.00
2010,05,04,10,42,8.10
2010,05,04,10,43,9.80
2010,05,04,10,44,8.50
2010,05,04,10,45,9.30
2010,05,04,10,46,5.60
2010,05,04,10,47,6.70
2010,05,04,10,48,12.70
2010,05,04,10,49,5.80
2010,05,04,10,50,9.50
2010,05,04,10,51,9.30
2010,05,04,10,52,9.30
2010,05,04,10,53,13.10
2010,05,04,10,54,8.00
2010,05,04,10,55,8.80
2010,05,04,10,56,9.60
2010,05,04,10,57,10.60
2010,05,04,10,58,2.80
2010,05,04,10,59,15.60
2010,05,04,11,00,14.10
2010,05,04,11,01,9.50
2010,05,04,11,02,10.40
2010,05,04,11,03,8.10
2010,05,04,11,04,2.20
2010,05,04,11,05,5.30
2010,05,04,11,06,4.70
2010,05,04,11,07,2.50
2010,05,04,11,08,1.80
2010,05,04,11,09,3.20
2010,05,04,11,10,7.10
2010,05,04,11,11,4.60
2010,05,04,11,12,5.80
2010,05,04,11,13,5.80
2010,05,04,11,14,2.80
2010,05,04,11,15,6.20
2010,05,04,11,16,14.00
2010,05,04,11,17,11.30
2010,05,04,11,18,14.10
2010,05,04,11,19,10.70
2010,05,04,11,20,10.50
2010,05,04,11,21,14.10
2010,05,04,11,22,12.80
2010,05,04,11,23,11.70
2010,05,04,11,24,6.40
2010,05,04,11,25,3.40
2010,05,04,11,26,1.70
2010,05,04,11,27,4.10
2010,05,04,11,28,1.10
2010,05,04,11,29,3.50
2010,05,04,11,30,4.10
2010,05,04,11,31,2.40
2010,05,04,11,32,7.10
2010,05,04,11,33,5.20
2010,05,04,11,34,4.40
2010,05,04,11,35,5.30
2010,05,04,11,36,4.50
2010,05,04,11,37,2.90
2010,05,04,11,38,2.70
2010,05,04,11,39,7.90
2010,05,04,11,40,1.80
2010,05,04,11,41,3.30
2010,05,04,11,42,3.00
2010,05,04,11,43,4.40
2010,05,04,11,44,3.60
2010,05,04,11,45,3.80
2010,05,04,11,46,1.90
2010,05,04,11,47,4.70
2010,05,04,11,48,11.40
2010,05,04,11,49,6.00
2010,05,04,11,50,3.70
2010,05,04,11,51,6.30
2010,05,04,11,52,6.30
2010,05,04,11,53,9.90
2010,05,04,11,54,10.30
2010,05,04,11,55,17.90
2010,05,04,11,56,17.60
2010,05,04,11,57,13.70
2010,05,04,11,58,13.30
2010,05,04,11,59,6.50
2010,05,04,12,00,10.90
2010,05,04,12,01,8.80
2010,05,04,12,02,11.70
2010,05,04,12,03,15.00
2010,05,04,12,04,11.80
2010,05,04,12,05,13.50
2010,05,04,12,06,12.30
2010,05,04,12,07,12.60
2010,05,04,12,08,9.70
2010,05,04,12,09,5.40
2010,05,04,12,10,9.10
2010,05,04,12,11,10.90
2010,05,04,12,12,15.70
2010,05,04,12,13,11.40
2010,05,04,12,14,7.40
2010,05,04,12,15,9.30
2010,05,04,12,16,6.30
2010,05,04,12,17,15.10
2010,05,04,12,18,13.30
2010,05,04,12,19,11.60
2010,05,04,12,20,11.50
2010,05,04,12,21,4.10
2010,05,04,12,22,13.40
2010,05,04,12,23,6.90
2010,05,04,12,24,3.20
2010,05,04,12,25,9.30
2010,05,04,12,26,5.80
2010,05,04,12,27,12.40
2010,05,04,12,28,9.30
2010,05,04,12,29,3.60
2010,05,04,12,30,10.30
2010,05,04,12,31,9.10
2010,05,04,12,32,9.10
2010,05,04,12,33,7.90
2010,05,04,12,34,8.60
2010,05,04,12,35,11.50
2010,05,04,12,36,10.40
2010,05,04,12,37,3.50
2010,05,04,12,38,2.10
2010,05,04,12,39,8.10
2010,05,04,12,40,2.90
2010,05,04,12,41,4.30
2010,05,04,12,42,4.20
2010,05,04,12,43,9.20
2010,05,04,12,44,6.90
2010,05,04,12,45,9.30
2010,05,04,12,46,11.30
2010,05,04,12,47,7.20
2010,05,04,12,48,4.30
2010,05,04,12,49,13.20
2010,05,04,12,50,7.80
2010,05,04,12,51,15.20
2010,05,04,12,52,11.90
2010,05,04,12,53,5.50
2010,05,04,12,54,6.00
2010,05,04,12,55,4.20
2010,05,04,12,56,2.50
2010,05,04,12,57,4.50
2010,05,04,12,58,11.20
2010,05,04,12,59,4.90
2010,05,04,13,00,6.90
2010,05,04,13,01,14.00
2010,05,04,13,02,8.40
2010,05,04,13,03,3.40
2010,05,04,13,04,3.30
2010,05,04,13,05,9.60
2010,05,04,13,06,13.80
2010,05,04,13,07,6.80
2010,05,04,13,08,8.60
2010,05,04,13,09,11.50
2010,05,04,13,10,11.10
2010,05,04,13,11,13.10
2010,05,04,13,12,3.00
2010,05,04,13,13,6.60
2010,05,04,13,14,14.10
2010,05,04,13,15,10.70
2010,05,04,13,16,13.70
2010,05,04,13,17,10.20
2010,05,04,13,18,8.50
2010,05,04,13,19,12.40
2010,05,04,13,20,8.70
2010,05,04,13,21,10.00
2010,05,04,13,22,7.70
2010,05,04,13,23,8.10
2010,05,04,13,24,17.30
2010,05,04,13,25,10.20
2010,05,04,13,26,6.80
2010,05,04,13,27,10.80
2010,05,04,13,28,7.60
2010,05,04,13,29,13.00
2010,05,04,13,30,9.60
2010,05,04,13,31,6.90
2010,05,04,13,32,9.80
2010,05,04,13,33,5.30
2010,05,04,13,34,16.30
2010,05,04,13,35,9.00
2010,05,04,13,36,7.00
2010,05,04,13,37,8.30
2010,05,04,13,38,6.30
2010,05,04,13,39,5.10
2010,05,04,13,40,7.50
2010,05,04,13,41,14.20
2010,05,04,13,42,6.90
2010,05,04,13,43,8.60
2010,05,04,13,44,5.10
2010,05,04,13,45,5.70
2010,05,04,13,46,15.60
2010,05,04,13,47,7.20
2010,05,04,13,48,8.80
2010,05,04,13,49,12.60
2010,05,04,13,50,6.90
2010,05,04,13,51,17.30
2010,05,04,13,52,9.00
2010,05,04,13,53,11.10
2010,05,04,13,54,14.90
2010,05,04,13,55,12.30
2010,05,04,13,56,13.60
2010,05,04,13,57,16.00
2010,05,04,13,58,12.10
2010,05,04,13,59,5.00
2010,05,04,14,00,9.60
2010,05,04,14,01,8.30
2010,05,04,14,02,8.90
2010,05,04,14,03,12.50
2010,05,04,14,04,6.60
2010,05,04,14,05,8.00
2010,05,04,14,06,11.90
2010,05,04,14,07,14.40
2010,05,04,14,08,11.50
2010,05,04,14,09,5.90
2010,05,04,14,10,9.30
2010,05,04,14,11,8.00
2010,05,04,14,12,15.30
2010,05,04,14,13,9.70
2010,05,04,14,14,8.90
2010,05,04,14,15,4.40
2010,05,04,14,16,8.30
2010,05,04,14,17,13.00
2010,05,04,14,18,8.20
2010,05,04,14,19,6.20
2010,05,04,14,20,2.60
2010,05,04,14,21,5.80
2010,05,04,14,22,11.40
2010,05,04,14,23,4.80
2010,05,04,14,24,11.30
2010,05,04,14,25,1.80
2010,05,04,14,26,4.10
2010,05,04,14,27,7.50
2010,05,04,14,28,8.00
2010,05,04,14,29,5.80
2010,05,04,14,30,5.10
2010,05,04,14,31,5.60
2010,05,04,14,32,5.80
2010,05,04,14,33,5.40
2010,05,04,14,34,8.60
2010,05,04,14,35,11.20
2010,05,04,14,36,7.40
2010,05,04,14,37,12.20
2010,05,04,14,38,2.90
2010,05,04,14,39,10.40
2010,05,04,14,40,9.50
2010,05,04,14,41,9.40
2010,05,04,14,42,6.30
2010,05,04,14,43,5.50
2010,05,04,14,44,9.00
2010,05,04,14,45,9.30
2010,05,04,14,46,13.60
2010,05,04,14,47,8.90
2010,05,04,14,48,14.50
2010,05,04,14,49,7.50
2010,05,04,14,50,2.60
2010,05,04,14,51,7.80
2010,05,04,14,52,7.50
2010,05,04,14,53,10.90
2010,05,04,14,54,6.50
2010,05,04,14,55,8.00
2010,05,04,14,56,8.50
2010,05,04,14,57,8.80
2010,05,04,14,58,7.60
2010,05,04,14,59,10.60
2010,05,04,15,00,10.80
2010,05,04,15,01,10.70
2010,05,04,15,02,2.40
2010,05,04,15,03,11.80
2010,05,04,15,04,4.70
2010,05,04,15,05,4.90
2010,05,04,15,06,6.90
2010,05,04,15,07,4.70
2010,05,04,15,08,3.90
2010,05,04,15,09,6.60
2010,05,04,15,10,4.50
2010,05,04,15,11,3.50
2010,05,04,15,12,3.90
2010,05,04,15,13,4.80
2010,05,04,15,14,2.30
2010,05,04,15,15,2.40
2010,05,04,15,16,4.10
2010,05,04,15,17,4.30
2010,05,04,15,18,5.00
2010,05,04,15,19,3.80
2010,05,04,15,20,2.40
2010,05,04,15,21,7.50
2010,05,04,15,22,5.40
2010,05,04,15,23,5.30
2010,05,04,15,24,1.00
2010,05,04,15,25,2.20
2010,05,04,15,26,1.20
2010,05,04,15,27,4.40
2010,05,04,15,28,6.20
2010,05,04,15,29,1.40
2010,05,04,15,30,7.50
2010,05,04,15,31,2.40
2010,05,04,15,32,7.50
2010,05,04,15,33,8.50
2010,05,04,15,34,3.40
2010,05,04,15,35,8.20
2010,05,04,15,36,6.90
2010,05,04,15,37,3.80
2010,05,04,15,38,4.70
2010,05,04,15,39,3.30
2010,05,04,15,40,2.80
2010,05,04,15,41,1.80
2010,05,04,15,42,0.90
2010,05,04,15,43,1.80
2010,05,04,15,44,4.20
2010,05,04,15,45,5.30
2010,05,04,15,46,5.90
2010,05,04,15,47,6.10
2010,05,04,15,48,8.50
2010,05,04,15,49,6.20
2010,05,04,15,50,4.30
2010,05,04,15,51,8.40
2010,05,04,15,52,2.80
2010,05,04,15,53,4.90
2010,05,04,15,54,2.90
2010,05,04,15,55,5.80
2010,05,04,15,56,10.30
2010,05,04,15,57,12.00
2010,05,04,15,58,8.20
2010,05,04,15,59,3.50
2010,05,04,16,00,2.10
2010,05,04,16,01,3.30
2010,05,04,16,02,10.30
2010,05,04,16,03,9.20
2010,05,04,16,04,11.10
2010,05,04,16,05,4.70
2010,05,04,16,06,6.50
2010,05,04,16,07,2.50
2010,05,04,16,08,11.20
2010,05,04,16,09,9.10
2010,05,04,16,10,4.60
2010,05,04,16,11,2.00
2010,05,04,16,12,3.10
2010,05,04,16,13,5.50
2010,05,04,16,14,3.80
2010,05,04,16,15,4.50
2010,05,04,16,16,5.10
2010,05,04,16,17,4.80
2010,05,04,16,18,2.10
2010,05,04,16,19,3.90
2010,05,04,16,20,4.50
2010,05,04,16,21,3.60
2010,05,04,16,22,4.80
2010,05,04,16,23,4.60
2010,05,04,16,24,6.10
2010,05,04,16,25,5.80
2010,05,04,16,26,3.10
2010,05,04,16,27,1.40
2010,05,04,16,28,3.00
2010,05,04,16,29,6.50
2010,05,04,16,30,1.60
2010,05,04,16,31,2.70
2010,05,04,16,32,5.80
2010,05,04,16,33,6.10
2010,05,04,16,34,8.60
2010,05,04,16,35,1.90
2010,05,04,16,36,3.00
2010,05,04,16,37,6.40
2010,05,04,16,38,3.00
2010,05,04,16,39,2.90
2010,05,04,16,40,2.80
2010,05,04,16,41,5.40
2010,05,04,16,42,2.50
2010,05,04,16,43,5.80
2010,05,04,16,44,5.80
2010,05,04,16,45,3.30
2010,05,04,16,46,3.70
2010,05,04,16,47,0.60
2010,05,04,16,48,5.00
2010,05,04,16,49,4.50
2010,05,04,16,50,6.00
2010,05,04,16,51,7.40
2010,05,04,16,52,7.60
2010,05,04,16,53,6.50
2010,05,04,16,54,4.70
2010,05,04,16,55,5.50
2010,05,04,16,56,8.10
2010,05,04,16,57,4.80
2010,05,04,16,58,9.80
2010,05,04,16,59,6.10
2010,05,04,17,00,6.70
2010,05,04,17,01,8.00
2010,05,04,17,02,6.50
2010,05,04,17,03,5.60
2010,05,04,17,04,6.30
2010,05,04,17,05,4.50
2010,05,04,17,06,3.30
2010,05,04,17,07,5.80
2010,05,04,17,08,8.70
2010,05,04,17,09,4.60
2010,05,04,17,10,8.20
2010,05,04,17,11,10.30
2010,05,04,17,12,8.60
2010,05,04,17,13,9.20
2010,05,04,17,14,6.00
2010,05,04,17,15,8.10
2010,05,04,17,16,10.70
2010,05,04,17,17,8.70
2010,05,04,17,18,10.00
2010,05,04,17,19,14.10
2010,05,04,17,20,8.40
2010,05,04,17,21,8.30
2010,05,04,17,22,4.80
2010,05,04,17,23,6.80
2010,05,04,17,24,11.30
2010,05,04,17,25,8.90
2010,05,04,17,26,1.30
2010,05,04,17,27,8.00
2010,05,04,17,28,7.70
2010,05,04,17,29,5.70
2010,05,04,17,30,8.20
2010,05,04,17,31,6.40
2010,05,04,17,32,10.60
2010,05,04,17,33,9.00
2010,05,04,17,34,6.00
2010,05,04,17,35,8.90
2010,05,04,17,36,6.90
2010,05,04,17,37,5.30
2010,05,04,17,38,6.70
2010,05,04,17,39,5.10
2010,05,04,17,40,5.30
2010,05,04,17,41,8.70
2010,05,04,17,42,5.00
2010,05,04,17,43,8.20
2010,05,04,17,44,3.60
2010,05,04,17,45,3.50
2010,05,04,17,46,5.60
2010,05,04,17,47,5.30
2010,05,04,17,48,2.70
2010,05,04,17,49,11.50
2010,05,04,17,50,8.90
2010,05,04,17,51,5.90
2010,05,04,17,52,5.80
2010,05,04,17,53,7.10
2010,05,04,17,54,7.20
2010,05,04,17,55,6.20
2010,05,04,17,56,11.40
2010,05,04,17,57,11.00
2010,05,04,17,58,5.50
2010,05,04,17,59,8.70
2010,05,04,18,00,2.50
2010,05,04,18,01,7.00
2010,05,04,18,02,14.20
2010,05,04,18,03,5.50
2010,05,04,18,04,2.00